Terminal Aerodrome Forecast
Issued by NWS Paducah, KY

Home | Current Version | Previous Version | Text Only | Print | Product List | Glossary On
Versions: 1 2 3 4 5 6 7 8 9 10 11 12 13 14
000
FTUS43 KPAH 181732
TAFPAH
TAF
KPAH 181732Z 1818/1918 28008KT P6SM FEW050
     FM182300 21003KT P6SM SCT120
     FM190900 24004KT P6SM FEW060 SCT120
     FM191400 27004KT P6SM FEW030=

USA.gov is the U.S. government's official web portal to all federal, state and local government web resources and services.